Home > Time Zones > World Clock > Weather > Japan > Kyoto > Past weeks

Flag for Japan Weather past 2 weeks in Kyoto, Japan

Now
72 °F

Sunny.


Feels Like: 76 °F
Forecast: 30 / 73 °F
Wind: 3 mph from North

Location: Osaka International Airport

Current Time: Apr 25, 2015 at 11:17:50 AM

Latest Report: Apr 25, 2015 at 11:00 AM


Visibility: 10 mi

Pressure: 30.07 "Hg

Humidity: 25%

Dew point: 34 °F

Location of KyotoLocation

Historic Weather in Kyoto — Graph

°F

Kyoto temperature yesterday

Maximum temperature yesterday: 73 °F (at 12:00 PM)
Minimum temperature yesterday: 52 °F (at 5:00 AM)
Average temperature yesterday: 67 °F

Past Weeks' High & Low Weather Summary

 TemperatureHumidityPressure
High73 °F (Apr 22, 3:00 PM)100% (Apr 20, 1:00 PM)30.36 "Hg (Apr 20, 1:00 PM)
Low43 °F (Apr 12, 5:00 AM)12% (Apr 18, 2:00 PM)29.50 "Hg (Apr 20, 3:00 PM)
Average61 °F64%29.97 "Hg
* Reported Apr 10 10:00 AM — Apr 25 10:00 AM, Kyoto, Weather by CustomWeather, © 2015

Note: Actual official high and low records may vary slightly from our data, if they occured in-between our weather recording intervals... More about our weather records

Advertising

Kyoto weather history for previous 24 hours

 ConditionsComfort  
Time TempWeatherWind HumidityBarometerVisibility
10:00 AM
Sat, Apr 25
68 °FSunny.2 mph28%30.07 "Hg10 mi
9:00 AM66 °FSunny.1 mph35%30.07 "Hg10 mi
8:00 AM63 °FSunny.2 mph52%30.07 "Hg10 mi
7:00 AM57 °FSunny.2 mph63%30.07 "Hg10 mi
6:00 AM54 °FPassing clouds.3 mph72%30.07 "HgN/A
5:00 AM54 °FPassing clouds.2 mph67%30.07 "HgN/A
8:00 PM
Fri, Apr 24
66 °FMostly cloudy.7 mph52%30.04 "HgN/A
7:00 PM66 °FMostly cloudy.10 mph52%30.01 "HgN/A
6:00 PM68 °FBroken clouds.12 mph43%30.01 "HgN/A
5:00 PM70 °FMore clouds than sun.12 mph38%30.01 "HgN/A
4:00 PM72 °FPartly sunny.10 mph33%29.98 "HgN/A
3:00 PM72 °FPartly sunny.10 mph33%30.01 "HgN/A
2:00 PM73 °FPartly sunny.13 mph25%30.01 "HgN/A
1:00 PM73 °FPartly sunny.14 mph27%30.04 "HgN/A
12:00 PM73 °FPartly sunny.10 mph31%30.07 "HgN/A
11:00 AM72 °FPartly sunny.8 mph38%30.09 "HgN/A
Weather by CustomWeather, © 2015

See weather overviewHow to use our weather pages